CMS-02 (GSAT 24)

Last updated on Thu Oct 30 2025 00:02:52 GMT+0000 (Coordinated Universal Time)

1 52903U 22067A 25302.34471705 -.00000155 00000+0 00000+0 0 9999 2 52903 0.0104 234.8499 0003487 21.8368 348.3465 1.00270252 12291
UTC large
Height (km)
Speed (km/s)
/
Latitude / Longitude
Inclination (degrees)
Orbital Period (minutes)
Azimuth
Elevation
Range (km)
Doppler Factor

Next 0 passes for location: London (51.5072 / 0.1276)

Sorry there are no passes over London.